Погода в Петруни

Погода в Петруни : погода сейчас, прогноз погоды и архив. Всё, что Вы хотите узнать о погоде в Петруни!

Поиск расширенной информации на нашем сайте:

Полезная информация: котокафе

Другие новости

Новости СМИ2

Главная страница сайта

Новости сайта

02.10.2013

Напоминаем, что на нашем новом сайте вы можете получить высокодетализированные прогнозы погоды по пунктам России, СНГ и мира (включающие важные для авиации метеовеличины, такие как направление и скорость ветра, видимость, явления погоды, количество и форма облачности, нижняя и верхняя граница облачности), а также ознакомиться с разнообразными материалами по авиационной метеорологии и подборкой полезных ссылок на эту тему.

Сайт Метеоцентр.Азия посвящён разработке технологий оптимизации авиаметеорологического обслуживания, включая проектирование и перспективное создание нескольких автоматизированных авиаметеорологических систем:
- система выпуска высокодетальных прогностических карт явлений погоды для нижнего воздушного пространства по России и ближнему зарубежью;
- система верификации прогнозов TAF (выпускаемых синоптиками официальных АМСГ РФ и ближнего зарубежья) и AUTOTAF (выпускаемых сайтом Метеоцентр.Азия) - выявление ошибок, онлайн-сопоставление с фактической погодой METAR, автоматическое внесение коррективов в прогнозы при резком отклонении фактической погоды от прогноза, подсчёт оправдываемости прогнозов по элементам и в целом;
- система обработки, анализа и отображения авиаметеорологической информации для применения провайдерами метеорологической информации.

Рекомендуем: Лада с пробегом купить авто с пробегом.

Погода в Петруни - сегодня

Время (UTC), дата Ветер
(°,м/с) 
Видим.   Явления Облачность Т
(°С)
Тd
(°С)
f(%) Тe
(°С)
Pmin
(гПа)
dP
(гПа)
Po
(мм)
O2
(г/м3)
Тmin Tmax R s Состояние
почвы
18 20.04.17 120 (ЮВ) 40000 м    3/0 средняя 
[Ac lent]
-8.1 -14.3 61 -11  1023.9  -1  762  318           
21 20.04.17 120 (ЮВ) 35000 м    ясно 
-15.2 -17.2 85 -17  1022.8  -1.3  761  326           
00 21.04.17 040 (СВ) 35000 м    4/0 верхняя 
[Ci fib]
-20.2 -21.4 90 -23  1021.1  -1.9  759  332           
03 21.04.17 060 (СВ) 40000 м    3/0 верхняя 
[Ci fib]
-12.7 -16.2 75 -17  1017.8  -3  757  321  -21.2      45  очень
неравномерный
сухой снег
(сугробы, заносы) 
06 21.04.17 080 (В) 6-10{10}  40000 м  позёмок  9/0 средняя, верхняя 
[Ac lent|Cs]
-6.6 -13.7 57 -11  1014.1  -3.5  755  313           
09 21.04.17 070 (В) 7-12{14}  45000 м  позёмок  8/0 средняя, верхняя 
[Ac lent|Cs]
-6.7 -13.3 59 -12  1009.2  -4.8  751  311           
12 21.04.17 070 (В) 5{12}  2200 м  снег  10/10 210 м 
[Frnb|Ns]
-9 -9.7 95 -14  1006.5  -2.8  749  313           
15 21.04.17 080 (В) 4{10}  6000 м  слаб. снег  10/3 300 м средняя 
[Frnb|As op]
-8.6 -10.1 89 -12  1002.5  -4  746  311    -5     
18 21.04.17 070 (В) 27000 м  {снег}  10/0 средняя 
[Ac As]
-8.2 -9.6 90 -11  998.6  -3.8  743  310           
21 21.04.17 080 (В) 10 км  слаб. снег  10/3 300 м средняя 
[Frnb|As op]
-9.2 -9.9 95 -9  995.9  -2.8  741  310           
00 22.04.17 170 (Ю) 30000 м  {снег}  9/0 средняя, верхняя 
[Ac As|Ci fib]
-10.2 -10.8 95 -10  995.3  -0.5  741  311           
03 22.04.17 210 (ЮЗ) 30000 м  {снег}  9/0 средняя, верхняя 
[Ac As|Cs]
-7.9 -8.9 93 -12  995.3  741  308  -10.3    0.9  48  очень
неравномерный
сухой снег
(сугробы, заносы) 
06 22.04.17 180 (Ю) 30000 м  {снег}  9/1 600 м верхняя 
[Sc|Cs]
-4.5 -7.2 81 -7  995.5  0.3  741  304           
09 22.04.17 200 (Ю) 28000 м  в посл. час ливневой снег  10/4 600 м кучево-дожд., средняя 
[Cb cap|Ac As]
-2.7 -6.1 77 -6  996.2  0.8  741  302           
12 22.04.17 240 (ЮЗ) 5{11}  35000 м  {ливн. осадки}  8/8 630 м кучево-дожд. 
[Cb cap]
-3.9 -10.6 60 -8  998.3  743  305           
15 22.04.17 130 (ЮВ) 40000 м    ясно 
-4.3 -11.7 56 -4  999.5  1.2  744  306    -2.7  0.0     
18 22.04.17 080 (В) 40000 м    3/1 600 м верхняя 
[Sc|Ci sp]
-8.3 -11.5 78 -10  1000.2  0.6  744  310           
21 22.04.17 180 (Ю) 29000 м    9/9 210 м 
[St]
-7.5 -8.8 90 -7  999.9  -0.3  744  309           
00 23.04.17 тихо ()   5000 м  слаб. снег  10/3 300 м средняя 
[Frnb|As op]
-6.9 -7.8 93 -7  1000.4  0.5  744  309           
03 23.04.17 180 (Ю) 27000 м  {снег}  10/10 240 м 
[St]
-0.1 -0.7 96 -2  1000.5  0.3  745  300  -8.7    0.6  48  очень
неравномерный
сухой снег
(сугробы, заносы) 
06 23.04.17 190 (Ю) 29000 м  в посл. час ливневой снег  10/10 630 м кучево-дожд. 
[Cb cap]
+1.9 -0.9 82 -1  1001.2  0.8  745  298           
09 23.04.17 200 (Ю) 35000 м  {ливн. осадки}  8/8 800 м кучево-дожд. 
[Cb cap]
+3.3 -2.4 66 +2  1002.7  1.5  746  297           
12 23.04.17 210 (ЮЗ) 40000 м  {ливн. осадки}  9/1 600 м кучево-дожд., средняя 
[Cb calv|Ac As]
+3.5 -1.8 68 +2  1004.1  1.4  747  298           
15 23.04.17 020 (С) 40000 м    9/0 средняя, верхняя 
[Ac As|Cs]
-0.1 -1.9 88 -3  1004.7  0.5  748  302    +4.9  0.0     
18 23.04.17 020 (С) 35000 м    9/0 средняя 
[Ac As]
-4.5 -6.5 86 -8  1005.2  0.4  748  307           
Время (UTC), дата Ветер
(°,м/с) 
Видим.   Явления Облачность Т
(°С)
Тd
(°С)
f(%) Тe
(°С)
Pmin
(гПа)
dP
(гПа)
Po
(мм)
O2
(г/м3)
Тmin Tmax R s Состояние
почвы

Для получения пояснительной информации подведите курсор к названию столбца.

ПОГОДА в Петруни - архив

Всё, что Вы хотите узнать о погоде в Петруни - удобно и подробно!

Выберите нужную дату (начиная с 1 января 2015* года) и нажмите кнопку "Найти".
Будут отображены архивные сводки погоды по пункту Петрунь, начиная с указанной даты.


Отображать данные в формате CSV (для использования в таблицах Excel)


Внимание! Наш архив погоды предназначен исключительно для личного некоммерческого использования в познавательных целях. Если Вам необходимы официальные справки о состоянии погоды (для производственных, юридических, коммерческих и т.п. целей), обращайтесь в органы Росгидромета.

*Примечание: данная дата относится к архиву по метеостанциям СССР (Россия, СНГ, Балтия).
Архив по метеостанциям Зарубежной Европы и Азии (кроме Китая) хранится 10 дней, по другим регионам земного шара (Китай, Африка, Америка, Австралия, Океания) - 1 день.

Петрунь - район местоположения метеостанции


Название, широта, долгота, высота метеостанции:
Петрунь 66.5°ш. 60.8°д. 58 м над ур. моря [Российская Федерация]

Дополнительная информация

В oтличие oт бoльшинства пoгoдных сайтoв мы публикуем пoдрoбную метеoинфoрмацию в детальнoм прoфессиoнальнoм фoрмате.

Характеристики температуры и влажнoсти вoздуха измеряются на высoте 2 м в тени вдали oт зданий и деревьев.
Скoрoсть ветра измеряется на высoте 10 м (на урoвне рoста челoвека скoрoсть ветра ниже в 1.5-2 раза). Если метеoстанция нахoдится в гoрoде или в лесу, тo скoрoсть ветра занижена на 2-4 м/с пo сравнению с oткрытым местoм. Скoрoсть ветра над акватoриями крупных рек и oзёр, а также на вершинах хoлмoв на 2-5 м/с выше, чем в oбычных услoвиях.
Атмoсфернoе давление в разных тoчках местнoсти мoжет значительнo oтличаться oт давления на метеoстанции, в зависимoсти oт услoвий рельефа (при пoдъёме на 10 м давление пoнижается примернo на 1 мм рт.ст.).